Location: Mound City (historical)
(34.0564°N, 117.2656°W)
Time: 01:51:09
(UTC+00:00)

CZ-2C R/B - Pass Details

Date: 08 September 2024
Orbit: 664 x 778 km, 98.4° (Epoch: 03 October)

Event Time Altitude Azimuth Distance (km) Brightness Sun altitude
Rises 12:43:18 0° 350° (N) 3,161 5.7 -9.9°
Reaches altitude 10° 12:46:43 10° 325° (NW) 2,208 4.7 -9.2°
Maximum altitude 12:49:02 14° 296° (WNW) 1,953 4.2 -8.8°
Drops below altitude 10° 12:51:19 10° 267° (W) 2,167 4.2 -8.3°
Enters shadow 12:51:21 10° 266° (W) 2,173 4.2 -8.3°
